THORAD DELTA 1 DEB, 42593

Orbit data source: Space-Track

THORAD DELTA 1 DEB, 42593 is space debris in LEO originally from a launch on Fri, 15 Nov 1974 UTC launched from the Air Force Western Test Range (AFWTR). Debris objects in space refer to the collection of defunct objects orbiting the Earth. Examples of debris include non-operational satellites, rocket bodies, and fragments generated from explosions, collisions, or faulty payload assembly.

Loading next visibility...
Identifier
42593, 1974-089FJ
Orbit
LEO
Country
Flag of USUS
Related business
Manufacturer
Unknown
Mission
Spacecraft
Bus & Motor
Unknown
Mass
Unknown
Launch date (UTC)
1974-11-15 (52 years ago)
Launch vehicle
Unknown
Launch site
Air Force Western Test Range (AFWTR)
Object type
Payload
Rocket body
Debris
Shape & HBR
Unknown shape, 0.1 m
Radar Cross Section
Medium (>0.1 m² and <1 m²)

Expand to show TLE details & history
Last TLE update: 2 days ago

TLE from 2 days ago
0 THORAD DELTA 1 DEB
1 42593U 74089FJ  26205.63251522 -.00000238  00000-0 -25150-2 0  9992
2 42593 101.1911  85.6549 0372319 279.1155 102.4878 11.83974326547696
Epoch: 2026-07-24T15:10Z
TLE epoch observation values (Epoch: 2026-07-24T15:10:49.315Z)
Latitude
25.22715°
Longitude
-89.73018°
Altitude
1,832.206 km
Speed
6.938 km/s
True Right ascension
05h 21m 19s
True Declination
25° 06' 44"
Sunlit
Object was in daylight at epoch
Visualization orbit readout
Latitude
Unknown
Longitude
Unknown
Altitude
Unknown
Speed
Unknown
Apparent Right ascension
Unknown
Apparent Declination
Unknown
Sunlit
N/A
Visualization observer readout
Local Sidereal Time
15:06:11
Azimuth
Unknown
Elevation
Unknown
Doppler factor
Unknown
Orbital elements
Apogee altitude
2,053.681 km
Perigee altitude
1,448.354 km
Semi-major axis
8,129.154 km
Eccentricity
0.03723
Inclination
101.1911°
RAAN
85.6549°
Arg. of periapsis
279.1155°
True anomaly
106.60826°
Mean anomaly
102.4878°
Eccentric anomaly
104.55259°
Mean motion
2.96125 °/min
Orbital period
121.57 mins
BSTAR
-0.002515
Loading maneuver chart data...
Computing Atmospheric mass density...

Documentation

Showing up to 5 results
|